Mount Holly, NJ

8:37 AM EST on December 06, 2019 (GMT -0500)
South Jersey Regional

Weather History for KVAY - October, 2019

Change the Weather History Date:

Thursday, October 10, 2019

  Actual Average (KPNE) Record (KPNE)
Temperature  
Mean Temperature 62 °F -  
Max Temperature 75 °F 66 °F 84 °F (1997)
Min Temperature 51 °F 46 °F 36 °F (2000)
Degree Days  
Heating Degree Days 3    
Growing Degree Days 12 (Base 50)    
Moisture  
Dew Point 45 °F    
Average Humidity 60    
Maximum Humidity 83    
Minimum Humidity 32    
Precipitation  
Precipitation 0.00 in - - ()
Sea Level Pressure  
Sea Level Pressure 30.18 in    
Wind  
Wind Speed 7 mph (North)    
Max Wind Speed 9 mph    
Max Gust Speed -    
Visibility 10 miles    
Events      
Averages and records for this station are not official NWS values.
T = Trace of Precipitation, MM = Missing Value Source: NWS Daily Summary

Daily Weather History Graph

Daily Weather History Graph

Search for Another Location

Airport or City:

Astronomy

Oct. 10, 2019 Rise Set
Actual Time 7:04 AM EDT 6:27 PM EDT
Civil Twilight 6:37 AM EDT 6:54 PM EDT
Nautical Twilight 6:05 AM EDT 7:26 PM EDT
Astronomical Twilight 5:34 AM EDT 7:57 PM EDT
Moon 5:28 PM EDT (10/10) 3:45 AM EDT (10/10)
Length of Visible Light 12h 17m
Length of Day
11h 23m
Waxing Gibbous, 91% of the Moon is Illuminated
Oct 10
Waxing Gibbous
Oct 13
Full
Oct 21
Last Quarter
Oct 27
New
Nov 4
First Quarter

Hourly Weather History & Observations

Time (EDT) Temp. Dew Point Humidity Pressure Visibility Wind Dir Wind Speed Gust Speed Precip Events Conditions
12:54 AM 53.1 °F 46.9 °F 80% 30.23 in 10.0 mi North 9.2 mph - N/A   Overcast
1:14 AM 52.0 °F 46.9 °F 83% 30.23 in 10.0 mi North 6.9 mph - N/A   Scattered Clouds
1:54 AM 52.0 °F 46.9 °F 83% 30.23 in 10.0 mi North 6.9 mph - N/A   Overcast
2:54 AM 52.0 °F 46.0 °F 80% 30.22 in 10.0 mi North 9.2 mph - N/A   Mostly Cloudy
3:54 AM 51.1 °F 46.0 °F 83% 30.21 in 10.0 mi North 6.9 mph - N/A   Scattered Clouds
4:54 AM 51.1 °F 45.0 °F 80% 30.21 in 10.0 mi North 8.1 mph - N/A   Clear
5:54 AM 51.1 °F 44.1 °F 77% 30.21 in 10.0 mi NNW 5.8 mph - N/A   Clear
6:54 AM 51.1 °F 45.0 °F 80% 30.22 in 10.0 mi North 5.8 mph - N/A   Overcast
7:54 AM 55.0 °F 46.0 °F 72% 30.22 in 10.0 mi NNW 6.9 mph - N/A   Overcast
9:54 AM 59.0 °F 48.0 °F 67% 30.22 in - North - - N/A   Overcast
10:54 AM 63.0 °F 48.0 °F 58% 30.21 in - North - - N/A   Overcast
11:54 AM 64.9 °F 48.0 °F 54% 30.20 in - North - - N/A   Overcast
12:54 PM 68.0 °F 48.0 °F 49% 30.18 in - North - - N/A   Overcast
1:54 PM 71.1 °F 50.0 °F 47% 30.16 in - North - - N/A   Clear
2:54 PM 73.0 °F 48.0 °F 41% 30.15 in - North - - N/A   Clear
3:54 PM 73.9 °F 45.0 °F 35% 30.14 in - North - - N/A   Scattered Clouds
4:54 PM 73.0 °F 45.0 °F 37% 30.14 in - North - - N/A   Clear
5:54 PM 71.1 °F 39.9 °F 32% 30.15 in 10.0 mi NNE 9.2 mph - N/A   Clear
6:54 PM 64.9 °F 39.0 °F 39% 30.14 in 10.0 mi NNE 4.6 mph - N/A   Clear
7:54 PM 62.1 °F 39.9 °F 44% 30.14 in 10.0 mi North 8.1 mph - N/A   Partly Cloudy
8:54 PM 60.1 °F 42.1 °F 51% 30.15 in 10.0 mi North 4.6 mph - N/A   Overcast
9:54 PM 55.9 °F 41.0 °F 57% 30.14 in 10.0 mi NNW 4.6 mph - N/A   Clear
10:54 PM 57.0 °F 41.0 °F 55% 30.15 in 10.0 mi North 5.8 mph - N/A   Mostly Cloudy
11:54 PM 57.9 °F 39.9 °F 51% 30.14 in 10.0 mi North 6.9 mph - N/A   Overcast